timestamp,surface_pressure_avg,surface_temp_avg,battery_voltage,lat,long
2022-10-19 00:09:00+00:00,249.9831,13.7,12.01,47.84626,-54.09684
2022-10-19 00:19:00+00:00,246.2848,13.7,12.01,47.84626,-54.09684
2022-10-19 00:29:00+00:00,246.3931,13.7,12.01,47.84626,-54.09684
2022-10-19 00:39:00+00:00,247.3698,13.7,12.01,47.84626,-54.09684
2022-10-19 00:49:00+00:00,244.0797,13.7,12.01,47.84626,-54.09684
2022-10-19 00:59:00+00:00,240.8131,13.8,12.01,47.84626,-54.09684
2022-10-19 01:09:00+00:00,241.9431,13.8,12.01,47.84626,-54.09684
2022-10-19 01:19:00+00:00,242.6164,13.8,12.01,47.84626,-54.09684
2022-10-19 01:29:00+00:00,242.2431,13.85,12.01,47.84626,-54.09684
2022-10-19 01:39:00+00:00,243.2247,13.81,12.01,47.84626,-54.09684
2022-10-19 01:49:00+00:00,242.5881,13.8,12.01,47.84626,-54.09684
2022-10-19 01:59:00+00:00,239.7648,13.7,12.01,47.84626,-54.09684
2022-10-19 02:09:00+00:00,240.2848,13.7,12.01,47.84626,-54.09684
2022-10-19 02:19:00+00:00,243.8582,13.72,12.01,47.84626,-54.09684
2022-10-19 02:29:00+00:00,243.6314,13.73,12.01,47.84626,-54.09684
2022-10-19 02:39:00+00:00,243.668,13.8,12.01,47.84626,-54.09684
2022-10-19 02:49:00+00:00,245.5281,13.8,12.01,47.84626,-54.09684
2022-10-19 02:59:00+00:00,247.3214,13.7,12.01,47.84626,-54.09684
2022-10-19 03:09:00+00:00,247.6831,13.7,12.01,47.84626,-54.09684
2022-10-19 03:19:00+00:00,254.4581,13.7,12.01,47.84626,-54.09684
2022-10-19 03:29:00+00:00,261.2597,13.7,12.01,47.84626,-54.09684
2022-10-19 03:39:00+00:00,265.4964,13.69,12.01,47.84626,-54.09684
2022-10-19 03:49:00+00:00,267.5714,13.68,12.01,47.84626,-54.09684
2022-10-19 03:59:00+00:00,272.2281,13.68,12.01,47.84626,-54.09684
2022-10-19 04:09:00+00:00,274.4631,13.67,12.01,47.84626,-54.09684
2022-10-19 04:19:00+00:00,272.4581,13.69,12.01,47.84626,-54.09684
2022-10-19 04:29:00+00:00,272.048,13.6,12.01,47.84626,-54.09684
2022-10-19 04:39:00+00:00,275.5714,13.6,12.01,47.84626,-54.09684
2022-10-19 04:49:00+00:00,279.7197,13.6,12.01,47.84626,-54.09684
2022-10-19 04:59:00+00:00,279.9014,13.6,12.01,47.84626,-54.09684
2022-10-19 05:09:00+00:00,283.5481,13.6,12.01,47.84626,-54.09684
2022-10-19 05:19:00+00:00,288.2747,13.6,12.01,47.84626,-54.09684
2022-10-19 05:29:00+00:00,289.2513,13.6,12.01,47.84626,-54.09684
2022-10-19 05:39:00+00:00,290.6347,13.6,12.01,47.84626,-54.09684
2022-10-19 05:49:00+00:00,297.1547,13.64,12.01,47.84626,-54.09684
2022-10-19 05:59:00+00:00,298.6747,13.66,12.01,47.84626,-54.09684
2022-10-19 06:09:00+00:00,292.6897,13.68,12.01,47.84626,-54.09684
2022-10-19 06:19:00+00:00,291.3097,13.69,12.01,47.84626,-54.09684
2022-10-19 06:29:00+00:00,296.2114,13.69,12.01,47.84626,-54.09684
2022-10-19 06:39:00+00:00,296.5114,13.7,12.01,47.84626,-54.09684
2022-10-19 06:49:00+00:00,291.4081,13.69,12.01,47.84626,-54.09684
2022-10-19 06:59:00+00:00,290.6962,13.63,12.01,47.84626,-54.09684
2022-10-19 07:09:00+00:00,295.4147,13.6,12.01,47.84626,-54.09684
2022-10-19 07:19:00+00:00,294.278,13.67,12.01,47.84626,-54.09684
2022-10-19 07:29:00+00:00,289.1998,13.68,12.01,47.84626,-54.09684
2022-10-19 07:39:00+00:00,287.7463,13.65,12.01,47.84626,-54.09684
2022-10-19 07:49:00+00:00,287.2497,13.68,12.01,47.84626,-54.09684
2022-10-19 07:59:00+00:00,281.6431,13.69,12.01,47.84626,-54.09684
2022-10-19 08:09:00+00:00,277.1196,13.69,12.01,47.84626,-54.09684
2022-10-19 08:19:00+00:00,277.8582,13.7,12.01,47.84626,-54.09684
2022-10-19 08:29:00+00:00,276.7515,13.7,12.01,47.84626,-54.09684
2022-10-19 08:39:00+00:00,269.7431,13.6,12.01,47.84626,-54.09684
2022-10-19 08:49:00+00:00,267.9198,13.6,12.01,47.84626,-54.09684
2022-10-19 08:59:00+00:00,268.4081,13.6,12.01,47.84626,-54.09684
2022-10-19 09:09:00+00:00,268.1947,13.61,12.01,47.84626,-54.09684
2022-10-19 09:19:00+00:00,264.7347,13.64,12.01,47.84626,-54.09684
2022-10-19 09:29:00+00:00,262.4831,13.66,12.01,47.84626,-54.09684
2022-10-19 09:39:00+00:00,260.1947,13.66,12.01,47.84626,-54.09684
2022-10-19 09:49:00+00:00,258.6214,13.67,12.01,47.84626,-54.09684
2022-10-19 09:59:00+00:00,256.1698,13.67,12.01,47.84626,-54.09684
2022-10-19 10:09:00+00:00,254.5315,13.66,12.01,47.84626,-54.09684
2022-10-19 10:19:00+00:00,253.3281,13.65,12.01,47.84626,-54.09684
2022-10-19 10:29:00+00:00,249.6215,13.62,12.01,47.84626,-54.09684
2022-10-19 10:39:00+00:00,245.4864,13.6,12.01,47.84626,-54.09684
2022-10-19 10:49:00+00:00,242.9881,13.6,12.01,47.84626,-54.09684
2022-10-19 10:59:00+00:00,240.1014,13.6,12.01,47.84626,-54.09684
2022-10-19 11:09:00+00:00,235.6348,13.6,12.01,47.84626,-54.09684
2022-10-19 11:19:00+00:00,235.0164,13.6,12.01,47.84626,-54.09684
2022-10-19 11:29:00+00:00,234.6431,13.6,12.01,47.84626,-54.09684
2022-10-19 11:39:00+00:00,232.4114,13.6,12.01,47.84626,-54.09684
2022-10-19 11:49:00+00:00,230.753,13.6,12.01,47.84626,-54.09684
2022-10-19 11:59:00+00:00,230.8114,13.6,12.01,47.84626,-54.09684
2022-10-19 12:09:00+00:00,229.4448,13.6,12.01,47.84626,-54.09684
2022-10-19 12:19:01+00:00,228.9514,13.6,12.01,47.84626,-54.09684
2022-10-19 12:29:01+00:00,230.4331,13.6,12.01,47.84626,-54.09684
2022-10-19 12:39:01+00:00,231.4698,13.6,12.01,47.84626,-54.09684
2022-10-19 12:49:01+00:00,229.4881,13.6,12.01,47.84626,-54.09684
2022-10-19 12:59:01+00:00,226.4332,13.6,12.01,47.84626,-54.09684
2022-10-19 13:09:01+00:00,229.8047,13.6,12.01,47.84626,-54.09684
2022-10-19 13:19:00+00:00,234.0414,13.6,12.65,47.84626,-54.09684
2022-10-19 13:29:00+00:00,233.4531,13.6,12.65,47.84626,-54.09684
2022-10-19 13:39:00+00:00,231.4398,13.6,12.65,47.84626,-54.09684
2022-10-19 13:49:00+00:00,234.9681,13.6,12.65,47.84626,-54.09684
2022-10-19 13:59:00+00:00,240.2798,13.6,12.65,47.84626,-54.09684
2022-10-19 14:09:00+00:00,240.1414,13.6,12.65,47.84626,-54.09684
2022-10-19 14:19:00+00:00,240.5431,13.6,12.57,47.84626,-54.09684
2022-10-19 14:29:00+00:00,241.4032,13.6,12.57,47.84626,-54.09684
2022-10-19 14:39:00+00:00,241.8581,13.6,12.57,47.84626,-54.09684
2022-10-19 14:49:00+00:00,243.6948,13.6,12.57,47.84626,-54.09684
2022-10-19 14:59:00+00:00,247.5414,13.6,12.57,47.84626,-54.09684
2022-10-19 15:09:00+00:00,248.1197,13.6,12.57,47.84626,-54.09684
2022-10-19 15:19:00+00:00,245.7447,13.6,12.25,47.84626,-54.09684
2022-10-19 15:29:00+00:00,247.7514,13.6,12.25,47.84626,-54.09684
2022-10-19 15:39:00+00:00,252.9664,13.6,12.25,47.84626,-54.09684
2022-10-19 15:49:00+00:00,258.2314,13.6,12.25,47.84626,-54.09684
2022-10-19 15:59:00+00:00,259.6797,13.6,12.25,47.84626,-54.09684
2022-10-19 16:09:00+00:00,258.4664,13.6,12.25,47.84626,-54.09684
2022-10-19 16:19:00+00:00,262.1914,13.6,12.33,47.84626,-54.09684
2022-10-19 16:29:00+00:00,268.7331,13.6,12.33,47.84626,-54.09684
2022-10-19 16:39:00+00:00,271.1664,13.6,12.33,47.84626,-54.09684
2022-10-19 16:49:00+00:00,269.89799999999997,13.6,12.33,47.84626,-54.09684
2022-10-19 16:59:00+00:00,274.403,13.6,12.33,47.84626,-54.09684
2022-10-19 17:09:00+00:00,277.7597,13.6,12.33,47.84626,-54.09684
2022-10-19 17:19:00+00:00,281.1397,13.6,12.25,47.84626,-54.09684
2022-10-19 17:29:00+00:00,284.2131,13.6,12.25,47.84626,-54.09684
2022-10-19 17:39:00+00:00,286.9015,13.6,12.25,47.84626,-54.09684
2022-10-19 17:49:00+00:00,290.408,13.6,12.25,47.84626,-54.09684
2022-10-19 17:59:00+00:00,294.5247,13.6,12.25,47.84626,-54.09684
2022-10-19 18:09:00+00:00,295.243,13.6,12.25,47.84626,-54.09684
2022-10-19 18:19:00+00:00,299.5297,13.6,12.25,47.84626,-54.09684
2022-10-19 18:29:00+00:00,305.1196,13.6,12.25,47.84626,-54.09684
2022-10-19 18:39:00+00:00,303.58799999999997,13.6,12.25,47.84626,-54.09684
2022-10-19 18:49:00+00:00,301.2396,13.6,12.25,47.84626,-54.09684
2022-10-19 18:59:00+00:00,306.628,13.6,12.25,47.84626,-54.09684
2022-10-19 19:09:00+00:00,307.433,13.6,12.25,47.84626,-54.09684
2022-10-19 19:19:00+00:00,300.603,13.6,12.17,47.84626,-54.09684
2022-10-19 19:29:00+00:00,304.368,13.6,12.17,47.84626,-54.09684
2022-10-19 19:39:00+00:00,313.8613,13.6,12.17,47.84626,-54.09684
2022-10-19 19:49:00+00:00,312.2213,13.65,12.17,47.84626,-54.09684
2022-10-19 19:59:00+00:00,304.3313,13.66,12.17,47.84626,-54.09684
2022-10-19 20:09:00+00:00,305.3231,13.68,12.17,47.84626,-54.09684
2022-10-19 20:19:01+00:00,309.193,13.68,12.09,47.84626,-54.09684
2022-10-19 20:29:01+00:00,304.423,13.69,12.09,47.84626,-54.09684
2022-10-19 20:39:01+00:00,302.4498,13.69,12.09,47.84626,-54.09684
2022-10-19 20:49:01+00:00,302.1147,13.68,12.09,47.84626,-54.09684
2022-10-19 20:59:01+00:00,294.5197,13.68,12.09,47.84626,-54.09684
2022-10-19 21:09:01+00:00,289.3497,13.69,12.09,47.84626,-54.09684
2022-10-19 21:19:00+00:00,291.0598,13.69,12.09,47.84626,-54.09684
2022-10-19 21:29:00+00:00,290.6564,13.69,12.09,47.84626,-54.09684
2022-10-19 21:39:00+00:00,284.0514,13.68,12.09,47.84626,-54.09684
2022-10-19 21:49:00+00:00,280.1081,13.69,12.09,47.84626,-54.09684
2022-10-19 21:59:00+00:00,281.638,13.68,12.09,47.84626,-54.09684
2022-10-19 22:09:00+00:00,279.1414,13.69,12.09,47.84626,-54.09684
2022-10-19 22:19:00+00:00,272.2047,13.68,12.09,47.84626,-54.09684
2022-10-19 22:29:00+00:00,270.0164,13.69,12.09,47.84626,-54.09684
2022-10-19 22:39:00+00:00,264.1097,13.68,12.09,47.84626,-54.09684
2022-10-19 22:49:00+00:00,251.5864,13.68,12.09,47.84626,-54.09684
2022-10-19 22:59:00+00:00,243.7097,13.7,12.09,47.84626,-54.09684
2022-10-19 23:09:00+00:00,244.7164,13.7,12.09,47.84626,-54.09684
2022-10-19 23:19:01+00:00,240.2081,13.7,12.09,47.84626,-54.09684
2022-10-19 23:29:01+00:00,236.0264,13.7,12.09,47.84626,-54.09684
2022-10-19 23:39:01+00:00,235.9448,13.7,12.09,47.84626,-54.09684
2022-10-19 23:49:01+00:00,234.1714,13.7,12.09,47.84626,-54.09684
2022-10-19 23:59:01+00:00,230.5014,13.7,12.09,47.84626,-54.09684
